Regional Weather Roundup
Issued by NWS

Home | Current Version | Previous Version | Graphics & Text | Print | Product List | Glossary On
Versions: 1 2 3 4 5 6 7 8 9 10 11 12 13 14 15 16 17 18 19 20 21 22 23 24 25 26 27 28 29 30 31 32 33 34 35 36 37 38 39 40 41 42 43 44 45 46 47 48 49 50
120
ASUS44 KLIX 201507
RWRLA
LOUISIANA WEATHER ROUNDUP
NATIONAL WEATHER SERVICE NEW ORLEANS LA
1000 AM CDT MON APR 20 2015

NOTE: "FAIR" INDICATES FEW OR NO CLOUDS BELOW 12,000 FEET WITH NO
      SIGNIFICANT WEATHER AND/OR OBSTRUCTIONS TO VISIBILITY.
      SKY/WX - SKY CONDITION AND SIGNIFICANT WEATHER.
      TMP - AIR TEMPERATURE.    DP   - DEWPOINT TEMPERATURE.
      RH  - RELATIVE HUMIDITY.  PRES - PRESSURE.
      HX  - HEAT INDEX.         WCI  - WIND CHILL INDEX.

*  THESE STATIONS ARE NOT NWS OR FAA STATIONS AND ARE NOT UNDER
   NWS QUALITY CONTROL.

LAZ040-048-061>063-065-066-069-201600-
SOUTHEAST LOUISIANA

CITY           SKY/WX    TMP DP  RH WIND       PRES   REMARKS
N.O. AUDUBON     N/A     78  63  60 MISG        N/A
N.O. INTL ARPT PTSUNNY   75  56  51 NW10      29.88R
N.O. LAKEFRONT CLOUDY    76  60  57 NW12      29.88R
SLIDELL        CLOUDY    75  59  57 VRB5      29.87R
BATON ROUGE    MOSUNNY   69  57  65 NW8G18    29.90R
BOOTHVILLE     CLOUDY    75  65  70 NW9       29.87S
BELLE CHASSE   CLOUDY    75  56  51 VRB5      29.87R
BOGALUSA*        N/A     73  59  61 NW3       29.88R
GALLIANO*      CLOUDY    76  60  58 NW6       29.89R
NEW ROADS*     FAIR      66  55  67 N10       29.91R
GONZALES*      FAIR      70  59  67 NW7       29.90R
HAMMOND*       MOSUNNY   72  57  60 NW13      29.90R
HOUMA*         MOSUNNY   73  61  64 NW9       29.89R
PORT FOURCHON* SUNNY     75  59  57 N14       29.92R

$$

LAZ041-044-053-054-201600-
SOUTHWEST LOUISIANA

CITY           SKY/WX    TMP DP  RH WIND       PRES   REMARKS
LAKE CHARLES   SUNNY     66  53  63 N13       29.94R
LAFAYETTE      SUNNY     68  53  58 NW13      29.91R
PATTERSON      SUNNY     72  61  68 NW12G18   29.91R
SALT POINT       N/A     73  60  63 NW8       29.89R
NEW IBERIA     SUNNY     70  56  61 N12       29.92R
CHENAULT AIRPK NOT AVBL

$$

LAZ027-028-201600-
CENTRAL LOUISIANA

CITY           SKY/WX    TMP DP  RH WIND       PRES   REMARKS
FORT POLK      SUNNY     61  47  59 N13       29.95S
ALEXANDRIA INT SUNNY     60  50  69 NW18G24   29.93R
ALEXANDRIA     MOSUNNY   61  51  70 VRB7      29.94R

$$

LAZ001-002-201600-
NORTHWEST LOUISIANA

CITY           SKY/WX    TMP DP  RH WIND       PRES   REMARKS
SHREVEPORT     MOSUNNY   62  43  49 N10       29.97R
BARKSDALE AFB  SUNNY     61  42  50 N17       29.96S
DTN SHREVEPORT SUNNY     59  41  51 N10G18    29.97S

$$

LAZ014-016-201600-
NORTHEAST LOUISIANA

CITY           SKY/WX    TMP DP  RH WIND       PRES   REMARKS
MONROE         SUNNY     62  44  51 NW16G26   29.94R
TALLULAH       CLOUDY    63  51  65 W12G18    29.91R

$$




USA.gov is the U.S. government's official web portal to all federal, state and local government web resources and services.